KALMAR current weather conditions

sailwx.info

Wind from 030 at 5 knots

Air temperature 1.0° C
Visibility: greater than 5.4 NM
Dewpoint 1.0° C

Last reported at 2018-Dec-14 08:50 UTC.
Time now 2018-Dec-14 09:38 UTC

Location: N 56°44' E 016°18'.
View on Google Maps.

See reports from other nearby stations

  
Tides and Currents Weather Stations Pressure Air Temp Water Temp Dewpoint Dewpoint Depression Visibility Wind Speed Wind Dir Waves Ship Positions
date/time (UTC)wind fromknots sea level pressurealtimeterstation pressurevisibilityair tempwater tempwave heightnotes
2018-Dec-14 08:50 030 5 5.4 1.0
2018-Dec-14 08:20 070 7 2.2 1.0 Light snow.
2018-Dec-14 07:50 080 4 5.4 1.0
2018-Dec-14 07:20 050 4 5.4 2.0
2018-Dec-14 06:50 030 4 3.2 1.0 Light rain.
2018-Dec-14 06:20 040 4 5.4 1.0
2018-Dec-14 05:50 040 7 5.4 1.0
2018-Dec-14 05:20 050 7 1.5 1.0 Light snow.
2018-Dec-14 04:50 030 5 5.4 2.0
2018-Dec-14 04:20 070 9 2.7 2.0 Mist.
2018-Dec-14 03:50 030 6 5.4 2.0
2018-Dec-14 03:20 030 5 5.4 2.0
2018-Dec-14 02:50 030 5 5.4 2.0
2018-Dec-14 02:20 030 5 5.4 2.0
2018-Dec-14 01:50 040 8 4.9 2.0 Light rain.
2018-Dec-14 01:20 040 8 5.4 2.0 Light rain.
2018-Dec-14 00:50 040 2 5.4 2.0
2018-Dec-14 00:20 010 2 5.4 1.0
2018-Dec-13 23:50 030 4 5.4 1.0
2018-Dec-13 23:20 040 5 2.7 2.0 Light rain.
2018-Dec-13 22:50 030 2 5.4 2.0
2018-Dec-13 22:20 050 6 3.8 2.0 Light snow.
2018-Dec-13 21:50 050 5 2.1 2.0 Light snow.
2018-Dec-13 21:20 360 4 5.4 2.0
2018-Dec-13 20:50 060 5 5.4 2.0
2018-Dec-13 20:20 040 4 gusting 15 2.7 1.0 Light rain.
2018-Dec-13 19:50 340 1 2.7 1.0 Light drizzle snow.
2018-Dec-13 19:20 060 2 2.1 1.0 Light rain.
2018-Dec-13 18:50 050 6 4.9 1.0 Light rain.
2018-Dec-13 18:20 030 6 5.4 1.0
2018-Dec-13 17:50 030 6 5.4 1.0
2018-Dec-13 17:20 030 5 5.4 1.0
2018-Dec-13 16:50 040 9 5.4 1.0
2018-Dec-13 16:20 040 7 4.9 2.0 Light rain.
2018-Dec-13 15:50 030 6 5.4 2.0
2018-Dec-13 15:20 340 5 2.5 1.0 Light snow.
2018-Dec-13 14:50 350 5 5.4 1.0 Light drizzle.
2018-Dec-13 14:20 340 5 5.4 1.0
2018-Dec-13 13:50 350 6 5.4 2.0
2018-Dec-13 13:20 360 5 5.4 2.0
2018-Dec-13 12:50 360 5 5.4 2.0
2018-Dec-13 12:20 360 5 5.4 2.0
2018-Dec-13 11:50 340 5 5.4 1.0
2018-Dec-13 11:20 020 6 5.4 1.0 Light snow.
2018-Dec-13 10:50 350 7 4.9 1.0 Light snow.
2018-Dec-13 10:20 350 6 5.4 2.0
2018-Dec-13 09:50 330 5 5.4 1.0
2018-Dec-13 09:20 340 5 5.4 1.0
2018-Dec-13 08:50 360 5 5.4 1.0
2018-Dec-13 08:20 030 6 3.2 1.0 Drizzle snow.
2018-Dec-13 07:50 340 5 5.4 1.0
2018-Dec-13 07:20 330 4 5.4 1.0
2018-Dec-13 06:50 360 5 4.9 1.0
2018-Dec-13 06:20 340 5 5.4 1.0
2018-Dec-13 05:50 360 6 3.8 1.0 Light snow.
2018-Dec-13 05:20 350 6 5.4 1.0
2018-Dec-13 04:50 340 6 5.4 1.0 Light snow.
2018-Dec-13 04:20 340 6 5.4 1.0
2018-Dec-13 03:50 340 6 5.4 1.0
2018-Dec-13 03:20 360 6 5.4 1.0
2018-Dec-13 02:50 340 6 5.4 1.0
2018-Dec-13 02:20 340 6 5.4 1.0
2018-Dec-13 01:50 350 6 5.4 1.0
2018-Dec-13 01:20 340 6 5.4 1.0
2018-Dec-13 00:50 350 6 5.4 1.0
2018-Dec-13 00:20 340 6 5.4 1.0
2018-Dec-12 23:50 340 6 5.4 1.0
2018-Dec-12 23:20 340 6 5.4 1.0
2018-Dec-12 22:50 340 6 5.4 1.0
2018-Dec-12 22:20 340 6 5.4 1.0
2018-Dec-12 21:50 350 6 5.4 1.0
2018-Dec-12 21:20 340 6 5.4 1.0
2018-Dec-12 20:50 340 6 5.4 1.0
2018-Dec-12 20:20 340 6 5.4 1.0
2018-Dec-12 19:50 340 7 5.4 1.0
2018-Dec-12 19:20 350 7 1.9 1.0 Light snow.
2018-Dec-12 18:50 360 8 1.9-0.0 Light snow.
2018-Dec-12 18:20 360 7 5.4 1.0
2018-Dec-12 17:50 350 9 5.4-0.0
2018-Dec-12 17:20 340 11 5.4-0.0
2018-Dec-12 16:50 350 8 5.4-0.0
2018-Dec-12 16:20 350 7 5.4-0.0
2018-Dec-12 15:50 350 9 5.4-0.0
2018-Dec-12 15:20 340 8 5.4-0.0
2018-Dec-12 14:50 340 7 5.4-0.0
2018-Dec-12 14:20 350 7 5.4-0.0
2018-Dec-12 13:50 330 7 5.4-0.0
2018-Dec-12 13:20 340 8 5.4 1.0
2018-Dec-12 12:50 350 9 5.4 1.0
2018-Dec-12 12:20 340 11 5.4 1.0
2018-Dec-12 11:50 350 11 5.4 1.0
2018-Dec-12 11:20 360 8 5.4 2.0
2018-Dec-12 10:50 350 9 5.4 2.0
2018-Dec-12 10:20 350 8 5.4 2.0
2018-Dec-12 09:50 010 9 5.4 2.0 Light drizzle.
2018-Dec-12 09:20 360 8 5.4 3.0